Regional Weather Roundup
Issued by NWS Spokane, WA

Home | Current Version | Previous Version | Text Only | Print | Product List | Glossary On
Versions: 1 2 3 4 5 6 7 8 9 10 11 12 13 14 15 16 17 18 19 20 21 22 23 24 25 26 27 28 29 30 31 32 33 34 35 36 37 38 39 40 41 42 43 44 45 46 47 48 49 50
000
NZUS01 KOTX 020010
RWROTX
EASTERN WASHINGTON/NORTHERN IDAHO ROUNDUP
NATIONAL WEATHER SERVICE, SPOKANE WA
500 PM PDT WED OCT 01 2014

Note: "fair" indicated few or no clouds below 12,000 feet with no
significant weather and/or obstructions to visibility.

...NORTHEAST WASHINGTON AND NORTHERN IDAHO PANHANDLE...

CITY           SKY/WX    TMP DP  RH WIND       PRES   REMARKS
SPOKANE INTL   PTSUNNY   61  32  33 SW16      30.05F
SPOKANE DOWNTO PTSUNNY   63  32  31 SW15      30.05S
COEUR D ALENE  CLOUDY    59  36  41 SW18      30.04F
DEER PARK      MOSUNNY   61  35  37 SW14G23   30.04S
SANDPOINT      PTSUNNY   57  37  47 SW6       30.02F

...SOUTHEAST WASHINGTON AND SOUTHERN IDAHO PANHANDLE...

CITY           SKY/WX    TMP DP  RH WIND       PRES   REMARKS
WALLA WALLA    SUNNY     68  38  33 W12       30.08F
PULLMAN/MOSCOW MOSUNNY   59  35  40 W10       30.11S
LEWISTON       SUNNY     67  37  33 VRB6      30.07F
LOWELL           N/A     53  50  89 N3        30.11F

...COLUMBIA BASIN...

CITY           SKY/WX    TMP DP  RH WIND       PRES   REMARKS
EPHRATA        SUNNY     70  34  26 S12       30.01F
MOSES LAKE     SUNNY     70  36  28 SW15      30.03F
TRI CITIES     SUNNY     70  41  34 W8        30.06F
HERMISTON      SUNNY     70  38  31 W13       30.07S
PENDLETON      SUNNY     67  35  30 NW14      30.07F

...EAST SLOPES CASCADES...

CITY           SKY/WX    TMP DP  RH WIND       PRES   REMARKS
THE DALLES     SUNNY     68  40  35 NW21G26   30.10S
YAKIMA         SUNNY     69  39  33 S6        30.05F
ELLENSBURG     MOSUNNY   66  39  37 NW23G31   30.07S
WENATCHEE      MOSUNNY   68  32  26 NW20      30.01F
OMAK           MOSUNNY   67  36  31 S10       29.96F

...SOUTHERN BRITISH COLUMBIA...

CITY           SKY/WX    TMP DP  RH WIND       PRES   REMARKS
PENTICTON      PTSUNNY   66  34  30 SW13G20   29.96S
CRANBROOK      MOSUNNY   57  28  33 W5        29.91S

...WESTERN MONTANA...

CITY           SKY/WX    TMP DP  RH WIND       PRES   REMARKS
MISSOULA       CLOUDY    53  33  46 W9        30.11R

...NEIGHBORING CITIES...

CITY           SKY/WX    TMP DP  RH WIND       PRES   REMARKS
SEATTLE        MOSUNNY   64  48  56 SW8       30.18S
CALGARY        MOSUNNY   59  19  21 W17G30    29.74R



USA.gov is the U.S. government's official web portal to all federal, state and local government web resources and services.